Location: Neuvy Saint Sepulchre
(46.5953°N, 1.8122°E)
Time: 09:32:12
(UTC+02:00)

ISS - Pass Details

Date: 15 July 2021
Orbit: 419 x 421 km, 51.6° (Epoch: 04 August)

Event Time Altitude Azimuth Distance (km) Brightness Sun altitude
Rises 22:52:55 0° 231° (SW) 2,360 0.1 -10.1°
Reaches altitude 10° 22:55:01 10° 227° (SW) 1,498 -0.9 -10.4°
Maximum altitude 22:58:20 58° 148° (SSE) 497 -3.7 -10.8°
Drops below altitude 10° 23:01:39 10° 69° (ENE) 1,505 -1.1 -11.1°
Sets 23:03:47 0° 65° (ENE) 2,372 -0.1 -11.4°
